Hallock, MN

6:55 PM CDT on July 21, 2017 (GMT -0500)
Hallock Municipal

Weather History for KHCO - December, 2013

Change the Weather History Date:

Tuesday, December 3, 2013

  Actual Average Record
Temperature  
Mean Temperature 21 °F -  
Max Temperature 23 °F 19 °F 54 °F (1982)
Min Temperature 19 °F 3 °F -25 °F (1964)
Degree Days  
Heating Degree Days 44    
Moisture  
Dew Point 16 °F    
Average Humidity 83    
Maximum Humidity 86    
Minimum Humidity 80    
Precipitation  
Precipitation 0.00 in - - ()
Sea Level Pressure  
Sea Level Pressure 29.92 in    
Wind  
Wind Speed 15 mph (NNE)    
Max Wind Speed 18 mph    
Max Gust Speed 22 mph    
Visibility 8 miles    
Events Snow    
Averages and records for this station are not official NWS values.
T = Trace of Precipitation, MM = Missing Value Source: NWS Daily Summary

Daily Weather History Graph

Daily Weather History Graph

Search for Another Location

Airport or City:

Trip Planner

Search our weather history database for the weather conditions in past years. The results will help you decide how hot, cold, wet, or windy it might be!

Date:

Astronomy

Dec. 03, 2013 Rise Set
Actual Time 8:02 AM CST 4:32 PM CST
Civil Twilight 7:25 AM CST 5:09 PM CST
Nautical Twilight 6:46 AM CST 5:49 PM CST
Astronomical Twilight 6:08 AM CST 6:27 PM CST
Moon 8:30 AM CST (12/3) 5:40 PM CST (12/3)
Length of Visible Light 9h 43m
Length of Day
8h 30m
New Moon, 1% of the Moon is Illuminated
Dec 3
New Moon
Dec 9
First Quarter
Dec 17
Full
Dec 25
Last Quarter
Jan 1
New

Hourly Weather History & Observations

Time (CST) Temp. Windchill Dew Point Humidity Pressure Visibility Wind Dir Wind Speed Gust Speed Precip Events Conditions
12:13 AM 23.0 °F 9.6 °F 17.6 °F 80% 29.84 in 10.0 mi NNE 16.1 mph - N/A   Overcast
12:33 AM 23.0 °F 10.6 °F 17.6 °F 80% 29.85 in 10.0 mi NNE 13.8 mph - N/A   Overcast
12:53 AM 23.0 °F 9.6 °F 17.6 °F 80% 29.85 in 10.0 mi NNE 16.1 mph 19.6 mph N/A   Overcast
1:13 AM 23.0 °F 11.1 °F 17.6 °F 80% 29.85 in 10.0 mi NNE 12.7 mph - N/A   Overcast
1:33 AM 23.0 °F 10.6 °F 17.6 °F 80% 29.85 in 10.0 mi NNE 13.8 mph - N/A   Overcast
1:53 AM 23.0 °F 9.6 °F 17.6 °F 80% 29.85 in 10.0 mi NNE 16.1 mph 21.9 mph N/A   Overcast
2:13 AM 23.0 °F 9.6 °F 17.6 °F 80% 29.84 in 10.0 mi NNE 16.1 mph - N/A   Overcast
2:33 AM 23.0 °F 8.7 °F 17.6 °F 80% 29.85 in 10.0 mi NNE 18.4 mph 21.9 mph N/A   Overcast
2:53 AM 21.2 °F 7.8 °F 17.6 °F 86% 29.87 in 10.0 mi NNE 15.0 mph 19.6 mph N/A   Overcast
3:14 AM 21.2 °F 7.8 °F 17.6 °F 86% 29.87 in 10.0 mi NNE 15.0 mph - N/A   Overcast
3:33 AM 21.2 °F 8.3 °F 17.6 °F 86% 29.87 in 10.0 mi NNE 13.8 mph 19.6 mph N/A   Overcast
3:53 AM 21.2 °F 8.9 °F 17.6 °F 86% 29.88 in 10.0 mi NNE 12.7 mph - N/A   Overcast
4:14 AM 21.2 °F 7.8 °F 15.8 °F 80% 29.87 in 10.0 mi NNE 15.0 mph - N/A   Overcast
4:33 AM 21.2 °F 7.8 °F 15.8 °F 80% 29.87 in 10.0 mi NNE 15.0 mph - N/A   Overcast
4:53 AM 21.2 °F 8.3 °F 15.8 °F 80% 29.87 in 10.0 mi NNE 13.8 mph - N/A   Overcast
5:14 AM 21.2 °F 7.8 °F 15.8 °F 80% 29.87 in 10.0 mi NNE 15.0 mph - N/A   Overcast
5:33 AM 21.2 °F 6.8 °F 15.8 °F 80% 29.86 in 10.0 mi NNE 17.3 mph - N/A   Overcast
5:53 AM 21.2 °F 8.9 °F 15.8 °F 80% 29.87 in 10.0 mi NNE 12.7 mph - N/A   Overcast
6:14 AM 21.2 °F 9.5 °F 15.8 °F 80% 29.89 in 10.0 mi North 11.5 mph - N/A   Overcast
6:33 AM 21.2 °F 8.9 °F 15.8 °F 80% 29.89 in 10.0 mi North 12.7 mph - N/A   Overcast
6:53 AM 21.2 °F 7.8 °F 15.8 °F 80% 29.89 in 10.0 mi North 15.0 mph - N/A   Overcast
7:12 AM 19.4 °F 6.0 °F 15.8 °F 86% 29.90 in 10.0 mi North 13.8 mph - N/A   Overcast
7:33 AM 19.4 °F 5.5 °F 15.8 °F 86% 29.91 in 10.0 mi North 15.0 mph - N/A   Overcast
7:53 AM 19.4 °F 6.0 °F 15.8 °F 86% 29.91 in 10.0 mi North 13.8 mph - N/A   Overcast
8:13 AM 19.4 °F 5.0 °F 15.8 °F 86% 29.91 in 10.0 mi North 16.1 mph - N/A   Overcast
8:33 AM 19.4 °F 4.5 °F 15.8 °F 86% 29.91 in 10.0 mi North 17.3 mph - N/A   Overcast
8:53 AM 19.4 °F 6.0 °F 14.0 °F 80% 29.92 in 10.0 mi NNE 13.8 mph - N/A   Overcast
9:13 AM 19.4 °F 6.0 °F 14.0 °F 80% 29.93 in 10.0 mi North 13.8 mph - N/A Snow Light Snow
9:33 AM 19.4 °F 5.5 °F 14.0 °F 80% 29.93 in 10.0 mi North 15.0 mph - N/A Snow Light Snow
9:53 AM 19.4 °F 7.2 °F 14.0 °F 80% 29.94 in 10.0 mi North 11.5 mph - N/A Snow Light Snow
10:13 AM 19.4 °F 4.5 °F 14.0 °F 80% 29.93 in 10.0 mi North 17.3 mph - N/A   Overcast
10:34 AM 19.4 °F 5.5 °F 15.8 °F 86% 29.94 in 10.0 mi North 15.0 mph - N/A Snow Light Snow
10:53 AM 19.4 °F 5.5 °F 14.0 °F 80% 29.95 in 10.0 mi North 15.0 mph - N/A Snow Light Snow
11:13 AM 19.4 °F 6.0 °F 15.8 °F 86% 29.95 in 10.0 mi North 13.8 mph 18.4 mph N/A   Overcast
11:33 AM 19.4 °F 6.0 °F 14.0 °F 80% 29.95 in 10.0 mi North 13.8 mph - N/A Snow Light Snow
11:53 AM 19.4 °F 6.0 °F 15.8 °F 86% 29.94 in 10.0 mi North 13.8 mph - N/A   Overcast
12:13 PM 19.4 °F 7.9 °F 15.8 °F 86% 29.94 in 10.0 mi North 10.4 mph - N/A   Overcast
12:33 PM 19.4 °F 5.0 °F 15.8 °F 86% 29.93 in 10.0 mi North 16.1 mph 19.6 mph N/A   Overcast
12:53 PM 19.4 °F 5.0 °F 15.8 °F 86% 29.92 in 10.0 mi North 16.1 mph 20.7 mph N/A   Overcast
1:13 PM 21.2 °F 7.8 °F 15.8 °F 80% 29.92 in 10.0 mi North 15.0 mph - N/A   Overcast
1:34 PM 21.2 °F 7.8 °F 15.8 °F 80% 29.93 in 7.0 mi North 15.0 mph - N/A Snow Light Snow
1:53 PM 21.2 °F 7.8 °F 15.8 °F 80% 29.93 in 5.0 mi North 15.0 mph - N/A Snow Light Snow
2:13 PM 21.2 °F 7.3 °F 15.8 °F 80% 29.93 in 5.0 mi North 16.1 mph - N/A Snow Light Snow
2:33 PM 21.2 °F 8.9 °F 15.8 °F 80% 29.93 in 5.0 mi North 12.7 mph - N/A Snow Light Snow
2:53 PM 21.2 °F 8.3 °F 15.8 °F 80% 29.93 in 7.0 mi North 13.8 mph - N/A Snow Light Snow
3:13 PM 21.2 °F 7.3 °F 15.8 °F 80% 29.94 in 7.0 mi North 16.1 mph - N/A   Overcast
3:33 PM 21.2 °F 8.9 °F 15.8 °F 80% 29.95 in 7.0 mi NNE 12.7 mph - N/A Snow Light Snow
3:53 PM 21.2 °F 7.8 °F 15.8 °F 80% 29.95 in 7.0 mi North 15.0 mph - N/A   Overcast
4:13 PM 21.2 °F 7.3 °F 15.8 °F 80% 29.95 in 7.0 mi North 16.1 mph - N/A   Overcast
4:33 PM 21.2 °F 8.3 °F 15.8 °F 80% 29.95 in 5.0 mi North 13.8 mph - N/A Snow Light Snow
4:53 PM 19.4 °F 4.5 °F 15.8 °F 86% 29.95 in 5.0 mi North 17.3 mph - N/A Snow Light Snow
5:13 PM 19.4 °F 5.5 °F 15.8 °F 86% 29.95 in 5.0 mi North 15.0 mph - N/A   Overcast
5:33 PM 19.4 °F 5.5 °F 15.8 °F 86% 29.95 in 5.0 mi North 15.0 mph - N/A   Overcast
5:53 PM 19.4 °F 5.5 °F 15.8 °F 86% 29.96 in 7.0 mi North 15.0 mph - N/A Snow Light Snow
6:13 PM 19.4 °F 6.0 °F 15.8 °F 86% 29.97 in 10.0 mi North 13.8 mph - N/A Snow Light Snow
6:33 PM 19.4 °F 6.6 °F 15.8 °F 86% 29.97 in 10.0 mi North 12.7 mph - N/A   Overcast
6:53 PM 19.4 °F 6.6 °F 15.8 °F 86% 29.97 in 10.0 mi North 12.7 mph - N/A Snow Light Snow
7:13 PM 19.4 °F 6.0 °F 15.8 °F 86% 29.97 in 7.0 mi North 13.8 mph - N/A Snow Light Snow
7:33 PM 19.4 °F 5.5 °F 15.8 °F 86% 29.97 in 4.0 mi North 15.0 mph - N/A Snow Light Snow
7:53 PM 19.4 °F 6.6 °F 15.8 °F 86% 29.97 in 3.0 mi North 12.7 mph - N/A Snow Light Snow
8:13 PM 19.4 °F 6.0 °F 15.8 °F 86% 29.98 in 3.0 mi North 13.8 mph - N/A Snow Light Snow
8:33 PM 19.4 °F 5.5 °F 15.8 °F 86% 29.98 in 5.0 mi North 15.0 mph - N/A Snow Light Snow
8:53 PM 19.4 °F 6.6 °F 15.8 °F 86% 29.99 in 5.0 mi North 12.7 mph - N/A Snow Light Snow
9:13 PM 19.4 °F 6.0 °F 15.8 °F 86% 29.98 in 7.0 mi North 13.8 mph - N/A Snow Light Snow
9:33 PM 19.4 °F 5.5 °F 15.8 °F 86% 29.98 in 7.0 mi NNE 15.0 mph - N/A Snow Light Snow
9:53 PM 19.4 °F 5.5 °F 15.8 °F 86% 29.96 in 7.0 mi NNE 15.0 mph - N/A Snow Light Snow
10:13 PM 19.4 °F 5.5 °F 15.8 °F 86% 29.96 in 10.0 mi NNE 15.0 mph - N/A Snow Light Snow
10:33 PM 19.4 °F 7.2 °F 15.8 °F 86% 29.97 in 10.0 mi North 11.5 mph - N/A Snow Light Snow
10:53 PM 19.4 °F 7.2 °F 15.8 °F 86% 29.98 in 10.0 mi North 11.5 mph - N/A Snow Light Snow
11:13 PM 19.4 °F 6.6 °F 15.8 °F 86% 29.97 in 10.0 mi North 12.7 mph - N/A Snow Light Snow
11:33 PM 19.4 °F 6.6 °F 15.8 °F 86% 29.96 in 7.0 mi North 12.7 mph - N/A Snow Light Snow
11:53 PM 19.4 °F 6.0 °F 15.8 °F 86% 29.97 in 5.0 mi North 13.8 mph - N/A Snow Light Snow